TimeCST,TemperatureF,Dew PointF,Humidity,Sea Level PressureIn,VisibilityMPH,Wind Direction,Wind SpeedMPH,Gust SpeedMPH,PrecipitationIn,Events,Conditions,WindDirDegrees,DateUTC
12:55 AM,50.5,42.6,74,30.09,10.0,South,5.8,-,N/A,,Clear,180,2012-11-22 06:55:00
1:55 AM,50.2,43.0,76,30.09,10.0,South,8.1,-,N/A,,Clear,180,2012-11-22 07:55:00
2:55 AM,49.8,43.3,78,30.08,10.0,South,6.9,-,N/A,,Clear,170,2012-11-22 08:55:00
3:55 AM,48.6,43.5,83,30.06,10.0,South,8.1,-,N/A,,Clear,170,2012-11-22 09:55:00
4:55 AM,47.3,44.1,88,30.07,10.0,South,6.9,-,N/A,,Clear,170,2012-11-22 10:55:00
5:55 AM,49.1,43.9,82,30.06,10.0,South,6.9,-,N/A,,Clear,170,2012-11-22 11:55:00
6:55 AM,48.7,43.9,83,30.06,10.0,SSE,8.1,-,N/A,,Partly Cloudy,160,2012-11-22 12:55:00
7:55 AM,54.3,42.4,64,30.06,10.0,South,8.1,-,N/A,,Mostly Cloudy,180,2012-11-22 13:55:00
8:55 AM,58.1,41.4,54,30.06,10.0,South,11.5,18.4,N/A,,Scattered Clouds,190,2012-11-22 14:55:00
9:55 AM,61.5,43.0,51,30.06,10.0,SSW,10.4,17.3,N/A,,Scattered Clouds,200,2012-11-22 15:55:00
10:55 AM,64.2,43.0,46,30.04,10.0,SSW,12.7,21.9,N/A,,Scattered Clouds,200,2012-11-22 16:55:00
11:55 AM,64.4,44.1,48,30.01,10.0,SSW,12.7,19.6,N/A,,Clear,210,2012-11-22 17:55:00
12:55 PM,66.2,45.1,47,29.98,10.0,SSW,11.5,21.9,N/A,,Partly Cloudy,210,2012-11-22 18:55:00
1:55 PM,68.5,45.5,44,29.96,10.0,SSW,9.2,24.2,N/A,,Scattered Clouds,210,2012-11-22 19:55:00
2:55 PM,66.4,46.0,48,29.95,10.0,South,13.8,20.7,N/A,,Clear,190,2012-11-22 20:55:00
3:55 PM,63.3,46.8,55,29.96,10.0,South,8.1,-,N/A,,Scattered Clouds,180,2012-11-22 21:55:00
4:29 PM,64.4,46.4,52,29.97,10.0,South,6.9,-,N/A,,Light Drizzle,190,2012-11-22 22:29:00
4:55 PM,61.0,48.7,64,29.97,10.0,SSW,4.6,18.4,0.00,Rain,Light Rain,210,2012-11-22 22:55:00
5:07 PM,59.0,48.2,67,29.97,10.0,SSW,5.8,-,N/A,,Overcast,200,2012-11-22 23:07:00
5:55 PM,59.2,48.4,67,30.00,10.0,WSW,3.5,-,0.00,,Overcast,240,2012-11-22 23:55:00
6:00 PM,59.0,48.2,67,30.01,10.0,West,3.5,-,N/A,,Light Drizzle,270,2012-11-23 00:00:00
6:03 PM,59.0,48.2,67,30.00,10.0,West,3.5,-,N/A,Rain-Thunderstorm,Light Thunderstorms and Rain,280,2012-11-23 00:03:00
6:46 PM,55.4,51.8,88,30.01,10.0,SSW,4.6,-,N/A,Rain,Light Rain,200,2012-11-23 00:46:00
6:55 PM,55.9,51.4,85,30.03,10.0,South,6.9,-,0.03,Rain,Light Rain,190,2012-11-23 00:55:00
6:57 PM,55.4,51.8,88,30.03,10.0,South,6.9,-,N/A,,Overcast,190,2012-11-23 00:57:00
7:55 PM,54.9,52.3,91,30.03,10.0,South,5.8,-,0.00,,Overcast,180,2012-11-23 01:55:00
8:55 PM,55.8,51.4,85,30.04,10.0,SSW,6.9,-,N/A,,Overcast,200,2012-11-23 02:55:00
9:55 PM,55.8,51.8,87,30.08,10.0,West,5.8,-,N/A,,Overcast,280,2012-11-23 03:55:00
10:09 PM,55.4,51.8,88,30.09,10.0,West,5.8,-,N/A,,Light Drizzle,270,2012-11-23 04:09:00
10:18 PM,55.4,51.8,88,30.09,10.0,Variable,5.8,-,N/A,,Overcast,0,2012-11-23 04:18:00
10:44 PM,55.4,50.0,82,30.11,10.0,NW,10.4,17.3,N/A,,Light Drizzle,310,2012-11-23 04:44:00
10:55 PM,55.0,46.0,72,30.12,10.0,NW,12.7,24.2,0.00,Rain,Light Rain,310,2012-11-23 04:55:00
11:10 PM,53.6,44.6,72,30.13,10.0,NW,10.4,19.6,N/A,,Overcast,320,2012-11-23 05:10:00
11:55 PM,52.9,41.5,65,30.15,10.0,NW,12.7,20.7,0.00,,Overcast,320,2012-11-23 05:55:00